CW7664 Weather Reports


Display with metric or nautical units.
time (UTC)temp
F
wind
direction
speed
MPH
gust
MPH
rain 1hr
in
rain 24hr
in
rain mn
in
humidity
%
barometer
mb
20260502163037 61 164 0.0 4.0 0.00 0.00 0.00 81 1013.9
20260502161533 61 285 0.0 3.0 0.00 0.00 0.00 82 1013.9
20260502151521 58 72 1.0 3.0 0.00 0.00 0.00 84 1013.3
20260502123105 56 86 0.0 1.0 0.00 0.00 0.00 84 1012.6
20260502121608 56 86 0.0 1.0 0.00 0.00 0.00 83 1012.5
20260502114556 56 231 0.0 2.0 0.00 0.00 0.00 84 1012.2
20260502113055 54 355 0.0 0.0 0.00 0.00 0.00 84 1012.2
20260502111558 53 355 0.0 0.0 0.00 0.00 0.00 84 1012.1
20260502110053 52 355 0.0 0.0 0.00 0.00 0.00 83 1011.9
20260502104552 52 355 0.0 0.0 0.00 0.00 0.00 83 1011.7
20260502103054 52 355 0.0 0.0 0.00 0.00 0.00 83 1011.8
20260502101605 52 355 0.0 0.0 0.00 0.00 0.00 83 1011.8
20260502071532 55 5 0.0 1.0 0.00 0.00 0.00 82 1012.4
20260502070029 55 5 0.0 1.0 0.00 0.00 0.00 82 1012.3
20260502064533 55 5 0.0 1.0 0.00 0.00 0.00 82 1012.3
20260502063027 55 5 0.0 1.0 0.00 0.00 0.00 81 1012.1
20260502061527 56 5 0.0 1.0 0.00 0.00 0.00 81 1012.2
20260502060027 56 5 0.0 1.0 0.00 0.00 0.00 81 1012.0
20260502054525 57 5 0.0 1.0 0.00 0.00 0.00 81 1012.1
20260502053028 57 5 0.0 1.0 0.00 0.00 0.00 80 1012.1
20260502051524 57 5 0.0 2.0 0.00 0.00 0.00 80 1012.2
20260502050024 58 344 0.0 1.0 0.00 0.00 0.00 80 1012.2
20260502044524 59 333 0.0 1.0 0.00 0.00 0.00 79 1012.1
20260502043023 59 327 0.0 1.0 0.00 0.00 0.00 79 1011.9
20260502041526 60 346 0.0 2.0 0.00 0.00 0.00 78 1011.8
20260502040025 60 310 0.0 3.0 0.00 0.00 0.00 78 1011.6
20260502034529 61 281 0.0 6.0 0.00 0.00 0.00 77 1011.5
20260502033021 61 292 1.0 5.0 0.00 0.00 0.00 77 1011.3
20260502031521 62 300 2.0 8.0 0.00 0.00 0.00 76 1011.1
20260502030020 62 250 1.0 5.0 0.00 0.00 0.00 75 1010.9
20260502024520 63 250 1.0 6.0 0.00 0.00 0.00 74 1010.8
20260502023020 63 338 2.0 6.0 0.00 0.00 0.00 73 1010.7
20260502021519 65 304 1.0 5.0 0.00 0.00 0.00 71 1010.6
20260502020022 66 308 1.0 7.0 0.00 0.00 0.00 69 1010.5
20260502014517 67 54 1.0 8.0 0.00 0.00 0.00 68 1010.5
20260502013018 68 254 2.0 7.0 0.00 0.00 0.00 67 1010.3
20260502011536 69 254 3.0 10.0 0.00 0.00 0.00 66 1010.4
20260502010019 69 217 3.0 8.0 0.00 0.00 0.00 65 1010.4
20260502004516 70 203 3.0 10.0 0.00 0.00 0.00 64 1010.4
20260502003022 70 252 4.0 11.0 0.00 0.00 0.00 65 1010.4
20260502001516 70 202 4.0 10.0 0.00 0.00 0.00 65 1010.4
20260502000014 71 218 3.0 10.0 0.00 0.00 0.00 63 1010.5
20260501234512 72 157 4.0 11.0 0.00 0.00 0.00 62 1010.6
20260501233012 71 40 4.0 11.0 0.00 0.00 0.00 63 1010.6
20260501231518 73 253 3.0 10.0 0.00 0.00 0.00 61 1010.7
20260501230013 73 203 3.0 13.0 0.00 0.00 0.00 60 1010.8
20260501224509 73 184 6.0 11.0 0.00 0.00 0.00 58 1010.8
20260501223007 74 172 3.0 10.0 0.00 0.00 0.00 58 1011.0
20260501221505 74 234 4.0 11.0 0.00 0.00 0.00 57 1011.2
20260501220003 75 229 4.0 11.0 0.00 0.00 0.00 55 1011.5
20260501214504 75 279 3.0 11.0 0.00 0.00 0.00 56 1011.5
20260501213002 75 216 3.0 12.0 0.00 0.00 0.00 55 1011.8
20260501211501 76 276 3.0 10.0 0.00 0.00 0.00 55 1011.8
20260501210100 75 186 4.0 11.0 0.00 0.00 0.00 56 1011.7
20260501204600 75 245 2.0 9.0 0.00 0.00 0.00 56 1011.8
20260501203058 75 19 3.0 9.0 0.00 0.00 0.00 56 1011.8
20260501201557 75 277 3.0 10.0 0.00 0.00 0.00 56 1012.0
20260501200056 74 15 2.0 9.0 0.00 0.00 0.00 57 1012.2
20260501194555 75 360 2.0 8.0 0.00 0.00 0.00 56 1012.4
20260501193053 74 205 4.0 13.0 0.00 0.00 0.00 59 1012.4
20260501191552 74 176 5.0 11.0 0.00 0.00 0.00 57 1012.6
20260501190059 74 227 3.0 10.0 0.00 0.00 0.00 59 1012.8
20260501184547 74 234 2.0 7.0 0.00 0.00 0.00 59 1012.9
20260501183044 73 242 1.0 8.0 0.00 0.00 0.00 60 1013.0
20260501181539 72 192 2.0 6.0 0.00 0.00 0.00 61 1013.1
20260501180037 72 157 3.0 7.0 0.00 0.00 0.00 62 1013.2
20260501174532 71 225 4.0 7.0 0.00 0.00 0.00 63 1013.4
20260501173030 70 214 2.0 8.0 0.00 0.00 0.00 65 1013.6
20260501171527 70 212 2.0 6.0 0.00 0.00 0.00 65 1013.6